• In Österreich
  • Länderverzeichnis
  • Für 7 Tage
  • Wassertemperatur
  • Satellitenkarten
  • Wetterkarte
  • News
  • Widgets
  • user-avatar
    Anmelden

    Stündliche Wetter Terme

    Heute, 19 November, Sonntag

    Zeit Temperatur Niederschläge Wind Luftdruck Luftfeuchtigkeit
    00:00 +17°C° 0 mm 3 m/S 758 mmHg 41%
    01:00 +17°C° 0 mm 3 m/S 757 mmHg 43%
    02:00 +17°C° 0 mm 3 m/S 757 mmHg 44%
    03:00 +16°C° 0 mm 3 m/S 757 mmHg 44%
    04:00 +16°C° 0 mm 3 m/S 757 mmHg 44%
    05:00 +16°C° 0 mm 3 m/S 757 mmHg 44%
    06:00 +17°C° 0 mm 3 m/S 756 mmHg 43%
    07:00 +18°C° 0 mm 3 m/S 756 mmHg 42%
    08:00 +19°C° 0 mm 3 m/S 756 mmHg 40%
    09:00 +20°C° 0 mm 3 m/S 756 mmHg 37%
    10:00 +22°C° 0 mm 3 m/S 756 mmHg 33%
    11:00 +25°C° 0 mm 3 m/S 755 mmHg 29%
    12:00 +25°C° 0 mm 3 m/S 755 mmHg 30%
    13:00 +25°C° 0 mm 4 m/S 755 mmHg 30%
    14:00 +25°C° 0 mm 4 m/S 755 mmHg 31%
    15:00 +23°C° 0,1 mm 4 m/S 755 mmHg 36%
    16:00 +21°C° 0,1 mm 4 m/S 755 mmHg 41%
    17:00 +19°C° 0,1 mm 4 m/S 755 mmHg 47%
    18:00 +19°C° 0,2 mm 4 m/S 755 mmHg 49%
    19:00 +18°C° 0,2 mm 4 m/S 755 mmHg 50%
    20:00 +18°C° 0,2 mm 4 m/S 756 mmHg 52%
    21:00 +18°C° 0,2 mm 4 m/S 756 mmHg 53%
    22:00 +17°C° 0,2 mm 3 m/S 756 mmHg 55%
    23:00 +17°C° 0,2 mm 3 m/S 756 mmHg 56%

    Morgen, 20 November, Montag

    Zeit Temperatur Niederschläge Wind Luftdruck Luftfeuchtigkeit
    00:00 +17°C° 0,1 mm 3 m/S 756 mmHg 57%
    01:00 +17°C° 0,1 mm 3 m/S 756 mmHg 58%
    02:00 +16°C° 0,1 mm 2 m/S 756 mmHg 59%
    03:00 +16°C° 0 mm 3 m/S 756 mmHg 60%
    04:00 +16°C° 0 mm 3 m/S 756 mmHg 61%
    05:00 +14°C° 0 mm 4 m/S 756 mmHg 61%
    06:00 +15°C° 0 mm 4 m/S 756 mmHg 59%
    07:00 +17°C° 0 mm 4 m/S 755 mmHg 57%
    08:00 +17°C° 0 mm 4 m/S 755 mmHg 55%
    09:00 +18°C° 0 mm 4 m/S 755 mmHg 51%
    10:00 +20°C° 0 mm 4 m/S 754 mmHg 46%
    11:00 +21°C° 0 mm 4 m/S 754 mmHg 42%
    12:00 +21°C° 0 mm 4 m/S 754 mmHg 41%
    13:00 +22°C° 0 mm 4 m/S 753 mmHg 40%
    14:00 +22°C° 0 mm 3 m/S 753 mmHg 39%
    15:00 +21°C° 0 mm 3 m/S 753 mmHg 43%
    16:00 +19°C° 0 mm 3 m/S 753 mmHg 47%
    17:00 +18°C° 0 mm 3 m/S 752 mmHg 51%
    18:00 +17°C° 0,1 mm 3 m/S 752 mmHg 54%
    19:00 +17°C° 0,1 mm 3 m/S 752 mmHg 57%
    20:00 +17°C° 0,1 mm 3 m/S 752 mmHg 60%
    21:00 +16°C° 0,3 mm 3 m/S 752 mmHg 64%
    22:00 +16°C° 0,3 mm 3 m/S 751 mmHg 68%
    23:00 +14°C° 0,3 mm 3 m/S 751 mmHg 72%

    übermorgen, 21 November, Dienstag

    Zeit Temperatur Niederschläge Wind Luftdruck Luftfeuchtigkeit
    00:00 +15°C° 0,1 mm 2 m/S 751 mmHg 73%
    01:00 +15°C° 0,1 mm 2 m/S 751 mmHg 74%
    02:00 +14°C° 0,1 mm 1 m/S 750 mmHg 75%
    03:00 +14°C° 0 mm 2 m/S 750 mmHg 75%
    04:00 +14°C° 0 mm 2 m/S 750 mmHg 75%
    05:00 +14°C° 0 mm 2 m/S 750 mmHg 75%
    06:00 +14°C° 0,5 mm 2 m/S 750 mmHg 77%
    07:00 +14°C° 0,5 mm 2 m/S 751 mmHg 79%
    08:00 +15°C° 0,5 mm 2 m/S 751 mmHg 81%
    09:00 +13°C° 3,1 mm 4 m/S 751 mmHg 86%
    10:00 +11°C° 3,1 mm 6 m/S 751 mmHg 90%
    11:00 +11°C° 3,1 mm 8 m/S 752 mmHg 94%
    12:00 +10°C° 4,6 mm 9 m/S 752 mmHg 93%
    13:00 +8°C° 4,6 mm 9 m/S 753 mmHg 93%
    14:00 +7°C° 4,6 mm 10 m/S 753 mmHg 93%
    15:00 +7°C° 1,4 mm 9 m/S 755 mmHg 90%
    16:00 +6°C° 1,4 mm 9 m/S 756 mmHg 88%
    17:00 +6°C° 1,4 mm 8 m/S 757 mmHg 86%
    18:00 +6°C° 0,7 mm 7 m/S 758 mmHg 86%
    19:00 +7°C° 0,7 mm 6 m/S 759 mmHg 86%
    20:00 +7°C° 0,7 mm 5 m/S 759 mmHg 86%
    21:00 +7°C° 0,4 mm 5 m/S 760 mmHg 86%
    22:00 +7°C° 0,4 mm 5 m/S 760 mmHg 86%
    23:00 +7°C° 0,4 mm 4 m/S 760 mmHg 86%

    22 November, Mittwoch

    Zeit Temperatur Niederschläge Wind Luftdruck Luftfeuchtigkeit
    00:00 +7°C° 0,3 mm 4 m/S 760 mmHg 86%
    01:00 +7°C° 0,3 mm 5 m/S 760 mmHg 85%
    02:00 +7°C° 0,3 mm 5 m/S 760 mmHg 85%
    03:00 +6°C° 0,4 mm 5 m/S 761 mmHg 85%
    04:00 +6°C° 0,4 mm 4 m/S 761 mmHg 85%
    05:00 +6°C° 0,4 mm 4 m/S 761 mmHg 85%
    06:00 +6°C° 0,3 mm 4 m/S 762 mmHg 83%
    07:00 +7°C° 0,3 mm 3 m/S 762 mmHg 81%
    08:00 +8°C° 0,3 mm 3 m/S 762 mmHg 79%
    09:00 +9°C° 0 mm 3 m/S 762 mmHg 73%
    10:00 +10°C° 0 mm 3 m/S 762 mmHg 67%
    11:00 +11°C° 0 mm 3 m/S 762 mmHg 61%
    12:00 +11°C° 0 mm 3 m/S 762 mmHg 60%
    13:00 +11°C° 0 mm 3 m/S 761 mmHg 58%
    14:00 +11°C° 0 mm 3 m/S 761 mmHg 57%
    15:00 +10°C° 0 mm 4 m/S 762 mmHg 61%
    16:00 +8°C° 0 mm 4 m/S 762 mmHg 65%
    17:00 +7°C° 0 mm 4 m/S 762 mmHg 69%
    18:00 +7°C° 0,1 mm 5 m/S 762 mmHg 67%
    19:00 +7°C° 0,1 mm 5 m/S 762 mmHg 66%
    20:00 +7°C° 0,1 mm 6 m/S 762 mmHg 65%
    21:00 +7°C° 0,2 mm 6 m/S 762 mmHg 66%
    22:00 +6°C° 0,2 mm 7 m/S 762 mmHg 67%
    23:00 +8°C° 0,2 mm 7 m/S 762 mmHg 68%

    23 November, Donnerstag

    Zeit Temperatur Niederschläge Wind Luftdruck Luftfeuchtigkeit
    00:00 +8°C° 0,7 mm 7 m/S 763 mmHg 71%
    01:00 +7°C° 0,7 mm 6 m/S 763 mmHg 74%
    02:00 +7°C° 0,7 mm 6 m/S 763 mmHg 77%
    03:00 +7°C° 0,5 mm 6 m/S 764 mmHg 80%
    04:00 +7°C° 0,5 mm 5 m/S 764 mmHg 83%
    05:00 +7°C° 0,5 mm 5 m/S 765 mmHg 85%
    06:00 +7°C° 0,2 mm 5 m/S 765 mmHg 85%
    07:00 +7°C° 0,2 mm 4 m/S 766 mmHg 85%
    08:00 +7°C° 0,2 mm 4 m/S 767 mmHg 85%
    09:00 +9°C° 0,1 mm 3 m/S 767 mmHg 83%
    10:00 +9°C° 0,1 mm 3 m/S 767 mmHg 82%
    11:00 +9°C° 0,1 mm 2 m/S 767 mmHg 81%
    12:00 +9°C° 0,1 mm 2 m/S 767 mmHg 80%
    13:00 +10°C° 0,1 mm 2 m/S 767 mmHg 80%
    14:00 +10°C° 0,1 mm 2 m/S 767 mmHg 79%
    15:00 +9°C° 0 mm 2 m/S 767 mmHg 81%
    16:00 +10°C° 0 mm 1 m/S 767 mmHg 83%
    17:00 +9°C° 0 mm 1 m/S 768 mmHg 86%
    18:00 +9°C° 0 mm 1 m/S 768 mmHg 86%
    19:00 +9°C° 0 mm 1 m/S 768 mmHg 87%
    20:00 +8°C° 0 mm 1 m/S 768 mmHg 87%
    21:00 +8°C° 0 mm 1 m/S 768 mmHg 87%
    22:00 +8°C° 0 mm 1 m/S 769 mmHg 87%
    23:00 +7°C° 0 mm 2 m/S 769 mmHg 86%

    24 November, Freitag

    Zeit Temperatur Niederschläge Wind Luftdruck Luftfeuchtigkeit
    00:00 +7°C° 0 mm 2 m/S 769 mmHg 85%
    01:00 +6°C° 0 mm 2 m/S 769 mmHg 84%
    02:00 +6°C° 0 mm 2 m/S 769 mmHg 83%
    03:00 +6°C° 0 mm 2 m/S 769 mmHg 83%
    04:00 +6°C° 0 mm 2 m/S 769 mmHg 82%
    05:00 +6°C° 0 mm 2 m/S 769 mmHg 81%
    06:00 +7°C° 0 mm 2 m/S 769 mmHg 79%
    07:00 +7°C° 0 mm 2 m/S 770 mmHg 78%
    08:00 +8°C° 0 mm 2 m/S 770 mmHg 76%
    09:00 +10°C° 0 mm 2 m/S 769 mmHg 71%
    10:00 +12°C° 0 mm 2 m/S 769 mmHg 66%
    11:00 +14°C° 0 mm 1 m/S 769 mmHg 61%
    12:00 +14°C° 0 mm 1 m/S 769 mmHg 61%
    13:00 +14°C° 0 mm 2 m/S 768 mmHg 60%
    14:00 +15°C° 0 mm 2 m/S 768 mmHg 60%
    15:00 +13°C° 0 mm 2 m/S 768 mmHg 65%
    16:00 +12°C° 0 mm 2 m/S 769 mmHg 70%
    17:00 +9°C° 0 mm 3 m/S 769 mmHg 74%
    18:00 +9°C° 0 mm 3 m/S 769 mmHg 75%
    19:00 +9°C° 0 mm 3 m/S 769 mmHg 76%
    20:00 +9°C° 0 mm 3 m/S 769 mmHg 76%
    21:00 +9°C° 0 mm 2 m/S 769 mmHg 76%
    22:00 +8°C° 0 mm 2 m/S 769 mmHg 75%
    23:00 +8°C° 0 mm 2 m/S 770 mmHg 75%
    Mehr zeigen